ウィルタネン彗星

46P/Wirtanen (1997)

English version
Home page
Updated on September 29, 2004

---------------------------------------------------------------------

・ プロフィール

・ 軌道要素

   The following improved orbital elements by Kenji Muraoka, 
  are from 227 observations 1985 to 1997, including 9 Planets, 
  Moon and 5 minor planets perturbations and non-gravitational 
  effect of style II.  
   The mean residual is +/- 0.65 arc seconds.

      Epoch  =  1997 Mar. 13.0  TT       JDT = 2450520.5
          T  =  1997 Mar. 14.15009       +/- 0.00155 (m.e.) TT
       Peri. =  356.34155                +/- 0.00046
       Node  =   82.20583                +/- 0.00013   (2000.0)
       Incl. =   11.72253                +/- 0.00002
          q  =    1.0637636              +/- 0.0000013 AU
          e  =    0.6567484              +/- 0.0000002
          a  =    3.0990786              +/- 0.0000014 AU
          n  =    0.18065716             +/- 0.00000012
          P  =    5.456                  +/- 0.0000036  years
         A1  =   +0.291                  +/- 0.038
         A2  =   -0.17211                +/- 0.00078

・ 星図

・ 1996年 7月 6日〜1997年 4月12日
・ 1997年 4月12日〜1997年 9月19日

・ 光度変化

        m1 = 14.5 + 5 logΔ +  8.0 log r          [    ,-150]  (              〜1996年10月15日)
        m1 =  8.0 + 5 logΔ + 27.0 log r(t - 12)  [-150, 180]  (1996年10月15日〜1997年 9月10日)
        m1 = 14.5 + 5 logΔ +  8.0 log r          [ 180,    ]  (1997年 9月10日〜              )

---------------------------------------------------------------------

軌道要素は村岡健治氏の計算によるものです。
星図は StellaNavigator Ver.2.0 for Windows (アストロアーツ 編著 / アスキー出版局刊) で作成したものです。
光度グラフはComet for Windowsで作成したものです。

---------------------------------------------------------------------

Copyright(C) Seiichi Yoshida (comet@aerith.net). All rights reserved.